User: anonymous   Login
Location: Unspecified
(0.0000°N, 0.0000°E)
Time: 14:41:16
(UTC+00:00)
Language:

STARLINK-34921 - Orbit

View from above orbital plane
View from above orbital plane
View from above satellite
View from above satellite

Ground track
Ground track

The orbit is defined by the following mean orbital elements,

1 65893U          26073.07981730 +.00000000 +00000-0 +89853-3 0 00003
2 65893  53.1607 351.1512 0001307  63.1381 296.9754 15.30199615    08
Epoch (UTC): 14 March 2026 01:54:56
Eccentricity: 0.0001307
inclination: 53.1607°
perigee height: 474 km
apogee height: 476 km
right ascension of ascending node: 351.1512°
argument of perigee: 63.1381°
revolutions per day: 15.30199615
mean anomaly at epoch: 296.9754°

The dashed part of the orbit path shows where the satellite is in the earth's shadow,  

DLR